CZ-2C DEB (43535 NORAD) Tracking and Keplerian Element Data

This shows tracking and keplerian element data for the satellite.

Feedback or suggestion? Click here.




ElementValue
Catalog43535
NameCZ-2C DEB
Epoch Orbit130
Epoch Day198.71757343
Epoch Year2018
RAAN269.3855
Inclination97.8489
Eccentricity0.0386627
Argument of Perigee131.5408
Mean Anonmoly231.9679
Mean Motion15.22144498
Decay Rate0.00689648
L11 43535U 18056G 18198.71757343 .00689648 10340-3 30510-2 0 9997
L22 43535 97.8489 269.3855 0386627 131.5408 231.9679 15.22144498 1300

Live tracking and technical data element details for CZ-2C DEB (NORAD 43535). CZ-2C DEB can be tracked NOW for your location showing map with azimuth and elevation plus other details from your city location.

Track the satellite on the map from your city or location and see movement details for azimuth, elevation, latitude, longitude, range, height, and movement on the map or in text.







IsCatalogInMostPopularTable: catalog: 43535, numindb: 5
Update: records affected: 1



GetName: 43535 CZ-2C DEB

Hit Count: updated at: Fri, 20 Jul 2018 20:34:40 GMT